Hourly Weather Roundup
Issued by NWS Central Illinois

Home | Current Version | Previous Version | Text Only | Print | Product List | Glossary On
Versions: 1 2 3 4 5 6 7 8 9 10 11 12 13 14 15 16 17 18 19 20 21 22 23 24 25 26 27 28 29 30 31 32 33 34 35 36 37 38 39 40 41 42 43 44 45 46 47 48 49 50
000
NZUS43 KILX 020510
HWRILX

AREA WEATHER ROUNDUP
NATIONAL WEATHER SERVICE, LINCOLN IL
1200 AM CDT WED SEP 02 2015


CITY           SKY/WX    TMP DP  RH WIND       PRES   REMARKS
BLOOMINGTON    CLEAR     73  71  93 S7        30.10R
CHAMPAIGN      PTCLDY    71  70  96 S5        30.10S FOG
DANVILLE       HVY RAIN  67  67  98 CALM      30.07S
DECATUR        PTCLDY    77  69  76 S9        30.09S
EFFINGHAM      PTCLDY    70  66  88 CALM      30.11S
FLORA          CLEAR     70  67  91 CALM      30.10S
GALESBURG      CLEAR     73  69  87 S7        30.05S
JACKSONVILLE   CLEAR     78  72  81 S5        30.07R HX  80
LACON          CLEAR     73  68  86 CALM      30.05S
LAWRENCEVILLE  CLEAR     71  69  93 CALM      30.11S
LITCHFIELD     CLEAR     72  68  88 S5        30.09F
$$


CITY           SKY/WX    TMP DP  RH WIND       PRES   REMARKS
LINCOLN        CLEAR     74  69  85 S5        30.07S
MACOMB         CLEAR     76  70  82 SW5       30.07S
MATTOON        MOCLDY    74  66  76 SW5       30.09S
MT CARMEL AP   CLEAR     68  64  88 CALM      30.10S
OLNEY-NOBLE AP CLEAR     70  68  94 CALM      30.11S
PARIS          PTCLDY    70  67  90 SW6       30.10S
PEORIA         CLEAR     77  68  73 S3        30.06S
PONTIAC        CLEAR     75  70  86 S5        30.08S
RANTOUL        MOCLDY    73  70  91 CALM      30.09S
ROBINSON       CLEAR     67  66  96 CALM      30.11S FOG
SPRINGFIELD    CLEAR     79  70  74 S10       30.07S HX  82
TAYLORVILLE    CLEAR     72  70  94 S6        30.09S
$$

...REGIONAL REPORTS...


CITY           SKY/WX    TMP DP  RH WIND       PRES   REMARKS
CHICAGO O`HARE PTCLDY    78  72  81 SW9       30.03S HX  80
KANKAKEE       CLEAR     70  67  92 SW6       30.07S
MOLINE         PTCLDY    77  68  73 S5        30.02S
MOUNT STERLING CLEAR     73  69  89 S5        30.06S
MOUNT VERNON   CLEAR     66  61  82 CALM      30.11S
PITTSFIELD     CLEAR     77  70  80 S5        30.08S
QUINCY         CLEAR     73  69  87 S5        30.06S
ROCKFORD       MOCLDY    73  69  87 CALM      30.04S
$$


CITY           SKY/WX    TMP DP  RH WIND       PRES   REMARKS
BURLINGTON     PTCLDY    74  70  87 SW6       30.04S
CEDAR RAPIDS   CLEAR     71  70  96 S5        30.01S
DES MOINES     MOCLDY    76  67  73 S9        29.98S
KIRKSVILLE     CLEAR     74  68  81 S7        30.05F
OTTUMWA        CLEAR     73  70  90 S8        30.00S
ST LOUIS       CLEAR     81  69  67 S7        30.08S HX  84
$$


CITY           SKY/WX    TMP DP  RH WIND       PRES   REMARKS
TERRE HAUTE    CLEAR     68  65  90 CALM      30.10S
EVANSVILLE     CLEAR     74  70  87 CALM      30.11S
INDIANAPOLIS   CLEAR     72  66  81 SW6       30.10S
LAFAYETTE      CLEAR     69  67  93 CALM      30.08F
MADISON        PTCLDY    77  71  82 SW5       29.99S
MILWAUKEE      MOCLDY    78  70  76 SW10      30.01R HX  80
$$




USA.gov is the U.S. government's official web portal to all federal, state and local government web resources and services.